Hourly Weather Bolshie Kuzmenki

Today, 19 June, Saturday

Time Temperature Precipitation Wind Pressure Humidity
00:00 +15°C° 0 mm 1 mps 752 mmHg 87%
01:00 +15°C° 0 mm 1 mps 752 mmHg 88%
02:00 +14°C° 0 mm 1 mps 752 mmHg 88%
03:00 +15°C° 0 mm 1 mps 752 mmHg 88%
04:00 +16°C° 0 mm 1 mps 752 mmHg 87%
05:00 +16°C° 0 mm 1 mps 752 mmHg 86%
06:00 +19°C° 0 mm 1 mps 752 mmHg 81%
07:00 +19°C° 0 mm 2 mps 752 mmHg 76%
08:00 +21°C° 0 mm 2 mps 752 mmHg 71%
09:00 +23°C° 0 mm 2 mps 752 mmHg 67%
10:00 +24°C° 0 mm 2 mps 752 mmHg 64%
11:00 +25°C° 0 mm 3 mps 752 mmHg 61%
12:00 +25°C° 0 mm 2 mps 752 mmHg 60%
13:00 +26°C° 0 mm 2 mps 751 mmHg 60%
14:00 +26°C° 0 mm 2 mps 751 mmHg 59%
15:00 +26°C° 0 mm 2 mps 751 mmHg 62%
16:00 +26°C° 0 mm 2 mps 751 mmHg 65%
17:00 +26°C° 0 mm 1 mps 750 mmHg 67%
18:00 +25°C° 0 mm 1 mps 750 mmHg 73%
19:00 +23°C° 0 mm 1 mps 750 mmHg 78%
20:00 +21°C° 0 mm 1 mps 750 mmHg 84%
21:00 +20°C° 0 mm 1 mps 750 mmHg 86%
22:00 +20°C° 0 mm 1 mps 750 mmHg 88%
23:00 +19°C° 0 mm 1 mps 750 mmHg 90%

Tomorrow, 20 June, Sunday

Time Temperature Precipitation Wind Pressure Humidity
00:00 +19°C° 0 mm 1 mps 750 mmHg 90%
01:00 +18°C° 0 mm 1 mps 751 mmHg 91%
02:00 +18°C° 0 mm 1 mps 751 mmHg 91%
03:00 +18°C° 0 mm 1 mps 751 mmHg 90%
04:00 +19°C° 0 mm 1 mps 750 mmHg 89%
05:00 +19°C° 0 mm 1 mps 750 mmHg 88%
06:00 +21°C° 0 mm 1 mps 750 mmHg 83%
07:00 +21°C° 0 mm 2 mps 750 mmHg 77%
08:00 +23°C° 0 mm 2 mps 750 mmHg 72%
09:00 +24°C° 0 mm 2 mps 750 mmHg 67%
10:00 +25°C° 0 mm 2 mps 750 mmHg 62%
11:00 +26°C° 0 mm 3 mps 750 mmHg 57%
12:00 +26°C° 0 mm 3 mps 750 mmHg 56%
13:00 +27°C° 0 mm 3 mps 750 mmHg 56%
14:00 +27°C° 0 mm 3 mps 749 mmHg 55%
15:00 +27°C° 0 mm 2 mps 749 mmHg 59%
16:00 +27°C° 0 mm 2 mps 749 mmHg 64%
17:00 +26°C° 0 mm 2 mps 749 mmHg 68%
18:00 +25°C° 0 mm 2 mps 749 mmHg 73%
19:00 +23°C° 0 mm 2 mps 749 mmHg 79%
20:00 +20°C° 0 mm 2 mps 749 mmHg 84%
21:00 +20°C° 0 mm 2 mps 749 mmHg 85%
22:00 +19°C° 0 mm 2 mps 748 mmHg 87%
23:00 +18°C° 0 mm 2 mps 748 mmHg 89%

Day after tomorrow, 21 June, Monday

Time Temperature Precipitation Wind Pressure Humidity
00:00 +19°C° 0 mm 1 mps 748 mmHg 89%
01:00 +19°C° 0 mm 1 mps 748 mmHg 89%
02:00 +19°C° 0 mm 1 mps 748 mmHg 89%
03:00 +18°C° 0 mm 2 mps 748 mmHg 89%
04:00 +18°C° 0 mm 2 mps 748 mmHg 88%
05:00 +19°C° 0 mm 2 mps 748 mmHg 88%
06:00 +20°C° 0 mm 3 mps 748 mmHg 83%
07:00 +22°C° 0 mm 3 mps 748 mmHg 78%
08:00 +23°C° 0 mm 4 mps 748 mmHg 73%
09:00 +25°C° 0 mm 4 mps 748 mmHg 69%
10:00 +27°C° 0 mm 4 mps 748 mmHg 66%
11:00 +28°C° 0 mm 4 mps 748 mmHg 62%
12:00 +28°C° 0 mm 4 mps 748 mmHg 62%
13:00 +28°C° 0 mm 4 mps 748 mmHg 62%
14:00 +29°C° 0 mm 4 mps 748 mmHg 61%
15:00 +28°C° 0 mm 4 mps 748 mmHg 66%
16:00 +27°C° 0 mm 3 mps 748 mmHg 71%
17:00 +27°C° 0 mm 3 mps 747 mmHg 76%
18:00 +26°C° 0 mm 3 mps 747 mmHg 79%
19:00 +25°C° 0 mm 3 mps 747 mmHg 82%
20:00 +24°C° 0 mm 3 mps 748 mmHg 86%
21:00 +22°C° 0 mm 3 mps 748 mmHg 87%
22:00 +21°C° 0 mm 2 mps 748 mmHg 89%
23:00 +21°C° 0 mm 2 mps 748 mmHg 91%

22 June, Tuesday

Time Temperature Precipitation Wind Pressure Humidity
00:00 +20°C° 0 mm 2 mps 748 mmHg 91%
01:00 +20°C° 0 mm 2 mps 748 mmHg 92%
02:00 +19°C° 0 mm 2 mps 748 mmHg 92%
03:00 +20°C° 0 mm 2 mps 748 mmHg 91%
04:00 +20°C° 0 mm 2 mps 748 mmHg 90%
05:00 +20°C° 0 mm 2 mps 748 mmHg 89%
06:00 +22°C° 0 mm 3 mps 748 mmHg 84%
07:00 +25°C° 0 mm 3 mps 748 mmHg 78%
08:00 +26°C° 0 mm 4 mps 748 mmHg 72%
09:00 +27°C° 0 mm 4 mps 748 mmHg 68%
10:00 +28°C° 0 mm 4 mps 748 mmHg 64%
11:00 +29°C° 0 mm 5 mps 748 mmHg 61%
12:00 +30°C° 0 mm 4 mps 748 mmHg 60%
13:00 +30°C° 0 mm 4 mps 748 mmHg 60%
14:00 +32°C° 0 mm 4 mps 748 mmHg 59%
15:00 +30°C° 0 mm 4 mps 748 mmHg 63%
16:00 +30°C° 0 mm 4 mps 748 mmHg 67%
17:00 +29°C° 0 mm 3 mps 748 mmHg 71%
18:00 +28°C° 0 mm 3 mps 748 mmHg 76%
19:00 +26°C° 0 mm 3 mps 748 mmHg 81%
20:00 +24°C° 0 mm 3 mps 748 mmHg 86%
21:00 +24°C° 0 mm 2 mps 748 mmHg 87%
22:00 +23°C° 0 mm 2 mps 748 mmHg 88%
23:00 +21°C° 0 mm 2 mps 748 mmHg 89%

23 June, Wednesday

Time Temperature Precipitation Wind Pressure Humidity
00:00 +21°C° 0 mm 2 mps 748 mmHg 89%
01:00 +21°C° 0 mm 2 mps 748 mmHg 89%
02:00 +20°C° 0 mm 2 mps 748 mmHg 89%
03:00 +21°C° 0 mm 2 mps 748 mmHg 88%
04:00 +21°C° 0 mm 2 mps 748 mmHg 87%
05:00 +21°C° 0 mm 2 mps 748 mmHg 86%
06:00 +24°C° 0 mm 3 mps 748 mmHg 81%
07:00 +25°C° 0 mm 3 mps 748 mmHg 75%
08:00 +27°C° 0 mm 3 mps 749 mmHg 70%
09:00 +28°C° 0 mm 3 mps 749 mmHg 66%
10:00 +29°C° 0 mm 3 mps 749 mmHg 62%
11:00 +30°C° 0 mm 3 mps 749 mmHg 57%
12:00 +30°C° 0 mm 3 mps 749 mmHg 56%
13:00 +31°C° 0 mm 3 mps 749 mmHg 54%
14:00 +31°C° 0 mm 3 mps 748 mmHg 52%
15:00 +31°C° 0 mm 3 mps 748 mmHg 57%
16:00 +30°C° 0 mm 3 mps 748 mmHg 61%
17:00 +30°C° 0 mm 2 mps 748 mmHg 66%
18:00 +28°C° 0 mm 2 mps 748 mmHg 72%
19:00 +27°C° 0 mm 2 mps 748 mmHg 77%
20:00 +25°C° 0 mm 2 mps 748 mmHg 83%
21:00 +24°C° 0 mm 2 mps 748 mmHg 84%
22:00 +23°C° 0 mm 2 mps 748 mmHg 86%
23:00 +23°C° 0 mm 2 mps 748 mmHg 88%

24 June, Thursday

Time Temperature Precipitation Wind Pressure Humidity
00:00 +21°C° 0 mm 2 mps 748 mmHg 88%
01:00 +22°C° 0 mm 1 mps 748 mmHg 89%
02:00 +22°C° 0 mm 1 mps 748 mmHg 89%
03:00 +22°C° 0 mm 1 mps 748 mmHg 88%
04:00 +23°C° 0 mm 1 mps 748 mmHg 88%
05:00 +23°C° 0 mm 2 mps 748 mmHg 87%
06:00 +25°C° 0 mm 2 mps 748 mmHg 82%
07:00 +26°C° 0 mm 2 mps 748 mmHg 77%
08:00 +28°C° 0 mm 3 mps 748 mmHg 72%
09:00 +29°C° 0 mm 3 mps 748 mmHg 68%
10:00 +30°C° 0 mm 2 mps 748 mmHg 64%
11:00 +31°C° 0 mm 2 mps 748 mmHg 60%
12:00 +32°C° 0 mm 2 mps 748 mmHg 58%
13:00 +32°C° 0 mm 2 mps 748 mmHg 57%
14:00 +32°C° 0 mm 2 mps 747 mmHg 55%
15:00 +32°C° 0 mm 2 mps 747 mmHg 59%
16:00 +32°C° 0 mm 2 mps 747 mmHg 63%
17:00 +31°C° 0 mm 2 mps 747 mmHg 68%
18:00 +30°C° 0 mm 2 mps 747 mmHg 72%
19:00 +28°C° 0 mm 2 mps 747 mmHg 76%
20:00 +27°C° 0 mm 2 mps 747 mmHg 81%
21:00 +26°C° 0 mm 2 mps 747 mmHg 82%
22:00 +25°C° 0 mm 1 mps 746 mmHg 84%
23:00 +24°C° 0 mm 1 mps 746 mmHg 85%
Show more